Location: LDNL
(36.4545°S, 141.6685°E)
Time: 11:23:44
(UTC+10:00)

Vanguard 3 - Pass Details

Date: 28 January 2022
Orbit: 508 x 3258 km, 33.3° (Epoch: 25 May)

Event Time Altitude Azimuth Distance (km) Brightness Sun altitude
Rises 23:17:10 0° 327° (NNW) 3,324 - -25.1°
Reaches altitude 10° 23:19:30 10° 339° (NNW) 2,648 - -25.3°
Maximum altitude 23:25:06 31° 39° (NE) 2,121 - -26.0°
Exits shadow 23:33:34 11° 93° (E) 4,185 10.5 -27.1°
Drops below altitude 10° 23:34:00 10° 94° (E) 4,315 10.5 -27.1°
Sets 23:38:59 0° 102° (ESE) 5,823 11.3 -27.7°
